Location: Chula Vista
(32.6400°N, 117.0842°W)
Time: 03:50:01
(UTC+00:00)

Daily predictions for brighter satellites

Satellite Brightness Start Highest point End
(mag) Time Altitude Azimuth Time Altitude Azimuth Time Altitude Azimuth
deb Kosmos-1763 4.1 03:12:51 10° S 03:16:14 49° ESE 03:19:38 10° NNE
Cosmos 1758 Rocket 3.5 03:12:16 10° S 03:16:32 76° E 03:20:51 10° N
Okean-O 3.6 03:20:52 10° S 03:25:09 50° W 03:29:27 10° NNW
Cosmos 1869 4.1 03:25:16 10° NNE 03:28:44 31° E 03:32:10 10° SE
Cosmos 1825 3.1 03:25:37 10° SSE 03:28:50 28° E 03:32:05 10° NNE
Cosmos 2058 4.3 03:25:55 10° SE 03:28:59 20° E 03:32:05 10° NE
OBJECT-B 0.8 03:28:53 10° SSE 03:32:01 60° ENE 03:35:11 10° N
NOSS 3-2 (A) 4.2 03:24:07 10° NNW 03:32:06 78° ENE 03:40:53 10° SSE
USA 306 4.2 03:29:35 10° NNW 03:33:19 28° NE 03:36:55 10° E
SAR-Lupe-1 4.0 03:30:09 10° NNE 03:33:43 72° ESE 03:37:15 10° S
COSMOS 2406 3.5 03:28:39 10° S 03:34:01 46° ESE 03:39:26 10° NNE
SAR-Lupe-4 3.5 03:30:37 10° NNE 03:34:10 62° ESE 03:37:40 10° S
Cosmos 405 Rocket 2.8 03:31:59 10° S 03:35:48 83° W 03:39:45 10° N
SL-19 R/B 4.0 03:33:42 10° SSE 03:36:44 54° ENE 03:40:10 10° N
Cosmos 2034 Rocket 4.3 03:30:53 10° N 03:37:05 74° W 03:43:20 10° S
SJ-6B 2.7 03:33:37 10° SSE 03:37:18 61° ENE 03:40:59 10° N
Meteor 1-27 4.3 03:34:19 10° N 03:40:04 74° E 03:45:52 10° SSE
NOSS 3-4 (A) 3.8 03:36:50 10° SW 03:42:33 67° WNW 03:48:33 10° NNE
NOSS 3-4 (C) 3.7 03:36:57 10° SW 03:42:39 68° WNW 03:48:39 10° NNE
OAO 1 Rocket 4.4 03:38:15 10° WSW 03:43:37 85° SSE 03:48:58 10° ENE
Atlas Centaur 2 2.3 03:42:02 10° SW 03:45:23 24° SSE 03:47:12 17° ESE
Cosmos 1437 Rocket 3.3 03:43:14 10° N 03:46:50 37° E 03:49:36 16° SE
USA 32 4.3 03:41:53 10° N 03:46:58 51° E 03:52:03 10° SSE
BREEZE M DEB (TANK) 2.9 03:46:02 10° S 03:47:46 23° ESE 03:51:38 10° ENE
Resurs 01 Rocket 2.9 03:46:24 15° ESE 03:48:58 24° ENE 03:52:34 10° NNE
Cosmos 1656 4.2 03:43:40 10° N 03:49:00 42° ENE 03:53:02 16° SE
Cosmos 1408 2.9 03:45:25 10° SSW 03:49:03 67° W 03:52:40 10° N
Cosmos 1437 4.5 03:49:00 10° NE 03:50:28 13° ENE 03:50:30 13° ENE
Cosmos 1980 Rocket 4.3 03:50:04 10° NE 03:51:01 10° NE 03:51:58 10° ENE
ATLAS 2AS CENTAUR R/B 3.0 03:43:15 10° SSW 03:51:02 71° ESE 03:58:52 10° NE
RESURS DK-1 3.4 03:53:35 15° SSE 03:55:56 25° ESE 03:59:20 10° NE
Cosmos 1825 Rocket 4.3 03:51:58 10° SSW 03:56:12 53° W 04:00:27 10° N
NOSS 3-2 (C) 4.2 03:51:15 10° NNW 03:59:12 71° ENE 04:06:18 17° SE
Cosmos-2242 3.4 03:55:54 10° NNW 04:00:08 65° W 04:04:20 10° S
OAO 3 Copernicus 4.3 03:55:19 10° WSW 04:00:21 86° NNW 04:05:25 10° ENE
H-2A R/B 2.2 03:49:46 10° WSW 04:00:34 46° S 04:02:15 24° ESE
Cosmos 1633 4.0 04:03:09 19° E 04:03:09 19° E 04:05:43 10° NE
Cosmos 44 Rocket 3.4 04:06:31 10° SSW 04:11:38 88° ESE 04:16:53 10° NNE
ERS-2 2.7 04:13:13 10° N 04:16:48 57° WNW 04:20:21 10° SSW
USA 267 3.4 04:11:10 10° NE 04:17:24 46° SE 04:23:38 10° SSW
Helios 1A Rocket 4.2 04:14:01 10° SSW 04:17:46 38° W 04:21:33 10° NNW
CENTAUR R/B 3.4 04:09:18 10° NNW 04:17:52 77° WSW 04:25:02 18° SSE
Sakura Rocket 4.3 04:10:33 10° W 04:19:13 64° S 04:23:06 26° ESE
Meteor 2-2 Rocket 4.3 04:14:04 10° N 04:19:47 59° E 04:23:03 25° SSE
Ariane Rocket 3.0 04:17:44 18° SSE 04:21:37 85° WSW 04:26:43 10° NNW
Cosmos 1634 Rocket 4.2 04:15:53 10° N 04:22:07 71° W 04:28:16 10° S
IRS-1A Rocket 4.4 04:21:09 15° S 04:25:48 74° WSW 04:31:19 10° NNW
Cosmos 1242 Rocket 2.3 04:23:12 10° N 04:26:48 83° E 04:27:49 45° SSE
SEDSat Delta rocket 2.7 04:24:47 10° WSW 04:28:46 64° S 04:29:54 43° ESE
OAO 2 Rocket 3.4 04:24:48 10° WNW 04:29:50 72° N 04:32:23 28° E
CZ-2C R/B 3.7 04:25:52 10° NNE 04:30:19 55° E 04:31:53 35° SSE
Cosmos 2221 2.6 04:27:53 10° N 04:32:06 54° E 04:33:02 44° SE
USA 307 2.8 04:28:19 10° NW 04:32:35 89° NE 04:33:45 47° SE
USA 238 DEB 4.3 04:25:30 10° NW 04:32:48 60° WSW 04:38:14 20° S
Cosmos 2180 Rocket 4.5 04:26:46 10° N 04:32:53 64° E 04:35:58 30° SSE
USA 238 4.3 04:25:36 10° NW 04:32:54 61° WSW 04:38:19 20° S
IGS 5A 3.5 04:40:42 39° S 04:42:09 73° WSW 04:46:18 10° NNW
Hubble Space Telescope 1.2 04:39:02 10° WSW 04:42:35 43° SSW 04:42:35 43° SSW
Terra 3.7 04:43:36 15° ENE 04:43:36 15° ENE 04:46:08 10° NNE
Cosmos 1606 2.9 04:42:52 10° N 04:46:13 51° ENE 04:46:13 51° ENE
USA 305 3.2 04:45:08 10° NW 04:49:12 53° SW 04:49:45 49° SSW
USA 308 3.0 04:45:14 10° NW 04:49:25 61° SW 04:49:57 55° SSW
Cosmos 1697 Rocket 2.7 04:43:56 10° NNW 04:49:36 71° ENE 04:51:14 46° SE
Cosmos 2082 Rocket 2.4 04:45:05 10° SSW 04:50:39 70° WNW 04:56:17 10° NNE
SPOT 3 Rocket 3.5 04:50:08 40° S 04:52:06 84° WSW 04:57:21 10° NNW
Cosmos 2151 3.3 05:00:21 52° NE 05:00:21 52° NE 05:03:51 10° NNE
Cosmos 1842 Rocket 4.3 05:08:35 10° NNW 05:12:54 48° W 05:13:42 43° SW
USA 306 4.2 05:09:25 10° WNW 05:12:59 30° WSW 05:12:59 30° WSW
GP-B 3.9 05:09:09 10° NNE 05:12:19 40° NE 05:12:19 40° NE
Cosmos 1092 Rocket 3.9 05:13:57 57° SSE 05:15:13 75° E 05:21:29 10° N
Meteor 2-3 Rocket 3.5 05:18:42 72° SE 05:19:04 76° E 05:24:45 10° NNE
ERS-1 Rocket 3.2 05:20:52 55° NE 05:20:52 55° NE 05:25:24 10° N
Spot 2 Rocket 3.3 05:21:57 86° SSE 05:22:05 89° E 05:27:13 10° NNW
Cosmos 2369 3.5 05:19:08 10° NNW 05:24:48 81° WSW 05:25:15 74° SSW
Resurs 01 Rocket 3.5 05:23:57 20° WSW 05:25:20 23° W 05:28:52 10° NW
Cosmos 2026 Rocket 3.9 05:33:39 72° S 05:34:22 85° E 05:40:43 10° N
Cosmos 1980 Rocket 2.1 05:30:06 10° NNW 05:35:38 86° N 05:35:38 86° N
Cosmos 158 Rocket 4.3 05:37:56 58° W 05:38:19 60° WNW 05:43:27 10° N
Cosmos 1627 Rocket 4.5 05:39:18 68° SSW 05:40:11 83° W 05:46:33 10° N
Cosmos 2322 Rocket 4.0 05:39:16 10° NNE 05:42:47 19° NE 05:42:47 19° NE
ARIANE 5 R/B 3.9 05:53:39 39° WNW 05:53:39 39° WNW 05:56:56 10° NNW
USA 267 4.3 05:54:12 10° NNE 06:00:17 43° NW 06:06:21 10° WSW
SPOT 5 4.2 06:02:36 32° NW 06:02:36 32° NW 06:05:14 10° NNW
ATLAS 3B R/B 2.7 05:59:55 10° NNW 06:07:10 81° ENE 06:07:15 81° ENE
SL-16 R/B 3.3 06:03:17 10° N 06:07:23 37° NNE 06:07:23 37° NNE
Cosmos 1553 Rocket 4.3 06:13:16 10° N 06:18:04 58° N 06:18:04 58° N
Terra 3.4 06:22:29 31° NW 06:22:29 31° NW 06:25:19 10° NNW
USA 234 4.4 06:28:20 31° ENE 06:29:37 33° NE 06:35:19 10° NNW
Cosmos 2333 Rocket 4.3 06:48:43 10° NNE 06:51:37 19° NE 06:51:37 19° NE
Cosmos 2360 Rocket 3.6 06:53:14 10° N 06:56:30 32° NNE 06:56:30 32° NNE
Cosmos 2322 Rocket 4.0 07:22:04 10° NNW 07:24:34 26° NW 07:24:34 26° NW
COSMOS 2428 4.4 07:45:08 10° N 07:48:18 29° NNE 07:48:18 29° NNE
Cosmos 2219 Rocket 3.9 07:50:07 10° N 07:52:56 29° N 07:52:56 29° N
COSMOS 2455 4.4 08:10:42 30° NNW 08:10:42 30° NNW 08:14:41 10° N
Lacrosse 5 4.2 08:37:07 20° NE 08:37:07 20° NE 08:38:36 10° NE
ATLAS 5 CENTAUR R/B 3.6 08:30:39 10° NNW 08:35:46 37° NE 08:35:46 37° NE
Cosmos 2333 Rocket 4.2 08:31:49 10° NNW 08:33:36 20° NW 08:33:36 20° NW
SL-16 R/B 4.0 08:45:14 27° ENE 08:45:54 27° ENE 08:50:57 10° NNE
Resurs 1-4 Rocket 3.9 08:41:52 10° NNE 08:44:30 26° NE 08:44:30 26° NE
Cosmos 2297 Rocket 3.5 09:00:40 37° N 09:00:40 37° N 09:04:08 10° NNE
Cosmos 2227 Rocket 3.3 09:11:21 40° N 09:11:21 40° N 09:14:58 10° NNE
Cosmos 2237 Rocket 3.3 09:04:32 10° NNW 09:08:08 39° N 09:08:08 39° N
ADEOS Rocket 4.1 09:16:08 33° ENE 09:16:29 33° ENE 09:21:22 10° N
USA 229 DEB 4.3 09:12:18 10° NW 09:17:56 53° WNW 09:17:56 53° WNW
USA 229 4.3 09:12:24 10° NW 09:18:04 53° WNW 09:18:04 53° WNW
CZ-2D R/B 3.0 09:19:57 10° NNE 09:23:40 46° NNE 09:23:40 46° NNE
ADEOS II 3.4 09:21:56 10° NNE 09:25:41 35° ENE 09:25:41 35° ENE
Cosmos 2181 Rocket 4.3 09:22:56 10° N 09:28:07 62° N 09:28:07 62° N
SL-16 R/B 3.6 09:28:57 10° N 09:34:03 34° ENE 09:35:34 29° E
Cosmos 2263 Rocket 3.6 09:36:12 30° E 09:36:12 30° E 09:40:40 10° NE
ATLAS 2A CENTAUR R/B 3.8 09:51:02 61° S 09:51:29 62° SSE 10:18:00 10° E
Helios 1B rocket 4.4 09:49:25 10° N 09:51:15 26° N 09:51:15 26° N
Nadezhda 3 Rocket 4.2 10:03:17 10° N 10:09:37 66° E 10:11:14 49° SE
Cosmos 2327 Rocket 4.3 10:10:32 82° SW 10:10:47 85° W 10:16:58 10° N
CZ-3B R/B 4.3 10:12:02 43° S 10:13:09 44° S 10:20:14 10° ESE
Cosmos 2344 3.4 10:14:50 60° SSW 10:16:28 89° ESE 10:23:58 10° NNE
CBERS-1 4.1 10:11:40 10° NNE 10:16:47 71° E 10:16:47 71° E
Lacrosse 5 3.9 10:16:19 17° NW 10:16:59 17° NW 10:20:20 10° N
IDEFIX/ARIANE 42P 2.6 10:11:57 10° NNE 10:17:07 69° ESE 10:17:13 68° ESE
Cosmos 1378 Rocket 4.3 10:13:00 10° N 10:16:54 49° ENE 10:16:54 49° ENE
Cosmos 1908 Rocket 4.2 10:19:31 52° ENE 10:19:31 52° ENE 10:23:12 10° NNE
Cosmos 1356 Rocket 4.3 10:20:55 44° NNE 10:20:55 44° NNE 10:23:46 10° NNE
ATLAS 5 CENTAUR R/B 4.1 10:15:13 10° NW 10:17:13 20° WNW 10:17:13 20° WNW
Resurs 1-4 Rocket 3.7 10:22:18 10° NNW 10:25:34 21° NW 10:25:34 21° NW
SL-16 R/B 3.2 10:30:20 36° WNW 10:30:20 36° WNW 10:34:56 10° NNW
DELTA 2 DEB (DPAF) 4.2 10:30:51 70° E 10:30:55 71° ENE 10:35:20 10° N
Cosmos 1190 Rocket 3.8 10:31:49 79° S 10:32:10 88° ESE 10:37:29 10° NNE
USA 215 3.5 10:27:01 10° NE 10:33:26 57° SE 10:35:19 43° S
Cosmos 1295 Rocket 4.5 10:33:38 56° WSW 10:34:08 58° W 10:40:11 10° N
Centaur AC-112 4.0 10:33:52 40° SSE 10:34:19 41° SSE 10:48:13 10° E
Cosmos 1140 Rocket 3.4 10:34:56 67° W 10:35:02 67° WNW 10:40:16 10° N
Cosmos 2154 Rocket 4.3 10:35:29 47° W 10:35:46 47° W 10:41:44 10° N
ASTRO E2 3.8 10:40:22 37° ESE 10:40:22 37° ESE 10:42:57 10° E
CZ-4C R/B 4.3 10:40:07 34° ESE 10:41:22 47° ENE 10:45:23 10° N
Okean 2 3.6 10:41:37 10° N 10:45:10 61° NW 10:45:10 61° NW
Cosmos 1954 Rocket 4.1 10:44:56 49° S 10:46:18 72° ESE 10:51:36 10° NNE
Meteor 1-21 4.1 10:40:33 10° N 10:46:21 78° W 10:48:10 46° S
CZ-4B R/B 4.0 10:44:06 10° NNE 10:48:46 49° E 10:50:38 31° SSE
MSX 3.7 10:45:46 10° N 10:51:30 78° WNW 10:53:13 47° SSW
ARIANE 5 R/B 2.7 10:48:44 10° NNE 10:53:55 70° ESE 10:56:00 37° S
CZ-2D R/B 4.1 10:53:58 10° NNE 10:57:52 48° E 10:59:15 33° SSE
Cosmos 1782 Rocket 3.4 11:00:42 60° SSW 11:01:27 84° W 11:05:49 10° N
ADEOS Rocket 4.0 11:03:05 23° W 11:03:05 23° W 11:06:29 10° NW
Cosmos 1805 3.9 11:01:49 34° SSE 11:03:08 51° E 11:06:56 10° NNE
Cosmos 864 Rocket 4.5 11:02:16 26° S 11:05:56 86° E 11:12:13 10° N
Cosmos 1959 Rocket 4.4 11:02:30 28° S 11:05:56 88° E 11:12:07 10° N
ADEOS II 3.6 11:02:26 10° NNW 11:06:12 20° WNW 11:06:36 20° WNW
ATLAS CENTAUR R/B 1.8 11:09:58 38° WNW 11:10:02 38° WNW 11:13:40 10° NNE
IUS-17 SRM-1 3.8 11:11:22 38° SSW 11:11:22 38° SSW 11:13:55 10° SE
SL-8 Rocket 4.0 11:09:37 33° SSW 11:12:27 64° W 11:18:34 10° N
KORONAS-FOTON 4.1 11:09:18 10° N 11:13:12 67° E 11:15:43 21° SSE
Cosmos 676 Rocket 4.1 11:12:58 38° SW 11:14:51 62° WNW 11:20:09 10° N
Cosmos 2366 rocket 4.0 11:11:29 26° SSW 11:15:14 77° W 11:21:37 10° N
IRS-1C 4.3 11:10:27 10° N 11:15:39 55° WNW 11:17:43 34° SW
SL-16 R/B 3.2 11:13:20 10° NW 11:17:20 26° W 11:17:20 26° W
Delta 142 4.2 11:16:04 32° WSW 11:18:36 53° S 11:23:28 10° ESE
Cosmos 2263 Rocket 3.2 11:17:54 25° W 11:19:34 30° WNW 11:24:31 10° N
Cosmos 1707 3.6 11:17:15 10° NNW 11:20:12 31° WNW 11:20:12 31° WNW
PAYLOAD A 4.1 11:21:51 10° NNE 11:27:17 84° ESE 11:31:26 17° S
Spot 1 4.0 11:25:21 27° SSW 11:27:23 55° WSW 11:31:26 10° NNW
Cosmos 1733 3.1 11:27:50 31° SSW 11:29:36 79° W 11:33:27 10° N
ALOS 3.1 11:25:44 10° NNE 11:30:15 48° E 11:34:44 10° S
GEOS 3 Rocket 4.3 11:25:30 10° SE 11:30:45 59° NE 11:36:00 10° NNW
Cosmos 1766 3.2 11:29:44 21° S 11:32:13 80° E 11:36:07 10° N
Cosmos 1741 Rocket 4.3 11:29:58 14° S 11:34:21 66° ESE 11:39:34 10° NNE
SL-08 R/B 3.3 11:30:54 10° S 11:35:48 75° WSW 11:40:46 10° NNW
Delta 128 3.9 11:34:57 28° WSW 11:36:59 49° S 11:41:47 10° ESE
CZ-4C R/B 3.1 11:29:13 10° NNW 11:37:03 81° WSW 11:45:43 10° SSE
Meteor 2-20 4.4 11:33:32 10° NNW 11:39:37 67° W 11:45:42 10° S
Cosmos 2218 Rocket 4.4 11:37:15 21° SW 11:41:11 44° W 11:47:13 10° N
Cosmos 1300 Rocket 3.5 11:38:50 20° SSW 11:41:45 68° W 11:46:04 10° N
USA 290 4.4 11:40:51 10° N 11:43:44 29° ENE 11:46:36 10° SE
Meteor 2-20 Rocket 4.4 11:38:11 10° N 11:44:21 86° W 11:50:30 10° S
Meteor 1-15 Rocket 4.3 11:43:12 13° SSW 11:48:29 67° W 11:54:22 10° N
Cosmos 1484 Rocket 3.8 11:46:59 10° NNE 11:50:49 47° E 11:54:39 10° S
Cosmos 1340 3.2 11:48:40 10° NNW 11:52:07 36° W 11:54:38 16° SSW
Cosmos 1975 Rocket 3.4 11:48:00 10° NNW 11:52:10 44° W 11:56:16 10° SSW
Cosmos 1727 Rocket 4.0 11:46:56 10° N 11:53:11 83° W 11:59:28 10° S
Cosmos 1400 Rocket 3.6 11:51:47 21° WSW 11:53:30 31° WNW 11:56:59 10° NNW
Cosmos 1626 2.2 11:52:20 10° NNW 11:55:57 55° W 11:59:32 10° S
